When you browse on this site, cookies collect data to enhance your experience and personalize the content and advertising you see.
Visit our Privacy Policy to learn more. By continuing to use the site, you agree to this use of cookies and data.
EN

Hourly Weather Stavky

Today, 8 August, Saturday

Time Temperature Precipitation Wind Pressure Humidity
00:00 +21°C° 0 mm 2 mps 739 mmHg 97%
01:00 +20°C° 0 mm 2 mps 738 mmHg 99%
02:00 +20°C° 0 mm 2 mps 739 mmHg 100%
03:00 +19°C° 0 mm 2 mps 738 mmHg 100%
04:00 +19°C° 0 mm 2 mps 738 mmHg 100%
05:00 +19°C° 0 mm 2 mps 738 mmHg 100%
06:00 +19°C° 0 mm 2 mps 738 mmHg 100%
07:00 +20°C° 0 mm 2 mps 738 mmHg 100%
08:00 +21°C° 0 mm 2 mps 739 mmHg 97%
09:00 +23°C° 0 mm 1 mps 739 mmHg 97%
10:00 +24°C° 0 mm 1 mps 739 mmHg 95%
11:00 +24°C° 0 mm 1 mps 739 mmHg 94%
12:00 +26°C° 0 mm 3 mps 739 mmHg 89%
13:00 +26°C° 0 mm 4 mps 738 mmHg 86%
14:00 +26°C° 0 mm 5 mps 738 mmHg 84%
15:00 +26°C° 0 mm 4 mps 738 mmHg 83%
16:00 +26°C° 0 mm 4 mps 738 mmHg 82%
17:00 +26°C° 0 mm 4 mps 738 mmHg 84%
18:00 +25°C° 0 mm 3 mps 737 mmHg 86%
19:00 +24°C° 0 mm 3 mps 737 mmHg 90%
20:00 +23°C° 0 mm 2 mps 737 mmHg 95%
21:00 +21°C° 0 mm 2 mps 737 mmHg 97%
22:00 +22°C° 0 mm 1 mps 737 mmHg 98%
23:00 +21°C° 0 mm 2 mps 738 mmHg 100%

Tomorrow, 9 August, Sunday

Time Temperature Precipitation Wind Pressure Humidity
00:00 +20°C° 0 mm 2 mps 738 mmHg 100%
01:00 +20°C° 0 mm 1 mps 737 mmHg 100%
02:00 +20°C° 0 mm 1 mps 737 mmHg 99%
03:00 +18°C° 0 mm 2 mps 737 mmHg 100%
04:00 +18°C° 0 mm 2 mps 736 mmHg 100%
05:00 +18°C° 0 mm 2 mps 736 mmHg 100%
06:00 +19°C° 0 mm 1 mps 736 mmHg 100%
07:00 +19°C° 0 mm 1 mps 737 mmHg 100%
08:00 +20°C° 0 mm 1 mps 737 mmHg 97%
09:00 +22°C° 0 mm 1 mps 737 mmHg 94%
10:00 +23°C° 0 mm 1 mps 738 mmHg 90%
11:00 +23°C° 0 mm 1 mps 737 mmHg 87%
12:00 +24°C° 0 mm 2 mps 737 mmHg 85%
13:00 +24°C° 0 mm 2 mps 737 mmHg 85%
14:00 +24°C° 0.1 mm 1 mps 736 mmHg 85%
15:00 +25°C° 0 mm 1 mps 736 mmHg 84%
16:00 +25°C° 0 mm 3 mps 735 mmHg 85%
17:00 +24°C° 0.2 mm 3 mps 735 mmHg 88%
18:00 +24°C° 0 mm 3 mps 735 mmHg 90%
19:00 +22°C° 0.3 mm 3 mps 735 mmHg 96%
20:00 +23°C° 0.1 mm 2 mps 735 mmHg 96%
21:00 +21°C° 0 mm 2 mps 735 mmHg 98%
22:00 +20°C° 0 mm 2 mps 735 mmHg 99%
23:00 +20°C° 0 mm 2 mps 735 mmHg 100%

Day after tomorrow, 10 August, Monday

Time Temperature Precipitation Wind Pressure Humidity
00:00 +20°C° 0 mm 1 mps 735 mmHg 100%
01:00 +20°C° 0 mm 1 mps 735 mmHg 100%
02:00 +20°C° 0 mm 1 mps 735 mmHg 100%
03:00 +19°C° 0 mm 1 mps 735 mmHg 100%
04:00 +18°C° 0 mm 2 mps 735 mmHg 100%
05:00 +18°C° 0 mm 2 mps 735 mmHg 100%
06:00 +18°C° 0 mm 2 mps 735 mmHg 100%
07:00 +18°C° 0 mm 2 mps 735 mmHg 100%
08:00 +19°C° 0 mm 1 mps 735 mmHg 100%
09:00 +20°C° 0 mm 1 mps 735 mmHg 100%
10:00 +20°C° 0 mm 1 mps 736 mmHg 100%
11:00 +20°C° 0 mm 1 mps 736 mmHg 98%
12:00 +20°C° 0 mm 2 mps 736 mmHg 97%
13:00 +21°C° 0 mm 2 mps 735 mmHg 94%
14:00 +22°C° 0 mm 3 mps 735 mmHg 91%
15:00 +24°C° 0 mm 3 mps 735 mmHg 88%
16:00 +24°C° 0 mm 3 mps 734 mmHg 86%
17:00 +24°C° 0 mm 3 mps 735 mmHg 88%
18:00 +22°C° 0 mm 3 mps 735 mmHg 88%
19:00 +23°C° 0 mm 2 mps 734 mmHg 93%
20:00 +21°C° 0 mm 2 mps 735 mmHg 96%
21:00 +20°C° 0 mm 2 mps 735 mmHg 98%
22:00 +19°C° 0 mm 2 mps 735 mmHg 98%
23:00 +20°C° 0 mm 1 mps 735 mmHg 99%

11 August, Tuesday

Time Temperature Precipitation Wind Pressure Humidity
00:00 +18°C° 0 mm 2 mps 735 mmHg 100%
01:00 +18°C° 0 mm 2 mps 735 mmHg 100%
02:00 +18°C° 0 mm 2 mps 735 mmHg 100%
03:00 +19°C° 0 mm 1 mps 735 mmHg 100%
04:00 +19°C° 0 mm 1 mps 735 mmHg 100%
05:00 +19°C° 0 mm 1 mps 735 mmHg 100%
06:00 +19°C° 0 mm 1 mps 735 mmHg 100%
07:00 +19°C° 0 mm 1 mps 735 mmHg 100%
08:00 +17°C° 0 mm 2 mps 735 mmHg 100%
09:00 +18°C° 0 mm 2 mps 735 mmHg 100%
10:00 +18°C° 0 mm 2 mps 736 mmHg 100%
11:00 +19°C° 0 mm 2 mps 736 mmHg 97%
12:00 +20°C° 0 mm 2 mps 736 mmHg 97%
13:00 +21°C° 0 mm 2 mps 736 mmHg 95%
14:00 +23°C° 0 mm 2 mps 736 mmHg 90%
15:00 +22°C° 0 mm 3 mps 735 mmHg 86%
16:00 +23°C° 0 mm 2 mps 735 mmHg 85%
17:00 +23°C° 0 mm 2 mps 735 mmHg 85%
18:00 +23°C° 0 mm 1 mps 735 mmHg 87%
19:00 +21°C° 0 mm 2 mps 735 mmHg 93%
20:00 +20°C° 0 mm 2 mps 735 mmHg 97%
21:00 +20°C° 0 mm 1 mps 735 mmHg 98%
22:00 +20°C° 0 mm 1 mps 735 mmHg 100%
23:00 +19°C° 0 mm 1 mps 735 mmHg 100%

12 August, Wednesday

Time Temperature Precipitation Wind Pressure Humidity
00:00 +18°C° 0 mm 1 mps 735 mmHg 100%
01:00 +18°C° 0 mm 1 mps 735 mmHg 100%
02:00 +17°C° 0 mm 2 mps 735 mmHg 100%
03:00 +17°C° 0 mm 2 mps 735 mmHg 100%
04:00 +17°C° 0 mm 2 mps 735 mmHg 100%
05:00 +17°C° 0 mm 2 mps 735 mmHg 100%
06:00 +17°C° 0 mm 2 mps 735 mmHg 100%
07:00 +16°C° 0 mm 3 mps 735 mmHg 100%
08:00 +16°C° 0 mm 2 mps 735 mmHg 100%
09:00 +16°C° 0 mm 2 mps 735 mmHg 100%
10:00 +16°C° 0 mm 2 mps 736 mmHg 100%
11:00 +16°C° 0 mm 2 mps 736 mmHg 100%
12:00 +17°C° 0 mm 2 mps 736 mmHg 100%
13:00 +17°C° 0 mm 2 mps 736 mmHg 98%
14:00 +18°C° 0 mm 3 mps 736 mmHg 97%
15:00 +19°C° 0 mm 3 mps 736 mmHg 94%
16:00 +20°C° 0 mm 3 mps 736 mmHg 90%
17:00 +20°C° 0 mm 3 mps 736 mmHg 84%
18:00 +19°C° 0 mm 3 mps 736 mmHg 86%
19:00 +19°C° 0 mm 2 mps 736 mmHg 91%
20:00 +18°C° 0 mm 2 mps 736 mmHg 95%
21:00 +17°C° 0 mm 2 mps 736 mmHg 98%
22:00 +17°C° 0 mm 2 mps 736 mmHg 99%
23:00 +16°C° 0 mm 2 mps 737 mmHg 98%

13 August, Thursday

Time Temperature Precipitation Wind Pressure Humidity
00:00 +16°C° 0 mm 2 mps 737 mmHg 98%
01:00 +15°C° 0 mm 2 mps 736 mmHg 99%
02:00 +15°C° 0 mm 2 mps 736 mmHg 100%
03:00 +15°C° 0 mm 2 mps 736 mmHg 100%
04:00 +14°C° 0 mm 2 mps 736 mmHg 100%
05:00 +14°C° 0 mm 2 mps 736 mmHg 100%
06:00 +14°C° 0 mm 2 mps 736 mmHg 100%
07:00 +14°C° 0 mm 1 mps 737 mmHg 100%
08:00 +14°C° 0 mm 1 mps 737 mmHg 100%
09:00 +15°C° 0 mm 1 mps 737 mmHg 98%
10:00 +18°C° 0 mm 1 mps 738 mmHg 93%
11:00 +18°C° 0 mm 2 mps 737 mmHg 89%
12:00 +18°C° 0 mm 3 mps 738 mmHg 83%
13:00 +19°C° 0 mm 3 mps 738 mmHg 82%
14:00 +19°C° 0 mm 2 mps 737 mmHg 80%
15:00 +19°C° 0 mm 2 mps 737 mmHg 78%
16:00 +19°C° 0 mm 2 mps 737 mmHg 79%
17:00 +19°C° 0 mm 2 mps 737 mmHg 80%
18:00 +19°C° 0 mm 2 mps 737 mmHg 84%
19:00 +19°C° 0 mm 1 mps 737 mmHg 90%
20:00 +19°C° 0 mm 1 mps 737 mmHg 94%
21:00 +18°C° 0 mm 1 mps 737 mmHg 96%
22:00 +16°C° 0 mm 0 mps 737 mmHg 97%
23:00 +16°C° 0 mm 1 mps 737 mmHg 98%
Show more